Location: Shenandoah County Park
(38.9356°N, 78.4524°W)
Time: 12:15:18
(UTC-05:00)

Courier 1B Rocket - All Passes

Search period start: 30 January 2023 00:00
Search period end: 09 February 2023 00:00
Orbit: 920 x 1202 km, 28.3° (Epoch: 29 January)

Date Brightness Start Highest point End Pass type
(mag) Time Alt. Az. Time Alt. Az. Time Alt. Az.
30 Jan - 18:07:53 10° SW 18:12:41 23° SSE 18:17:35 10° ESE visible
30 Jan - 19:59:48 10° WSW 20:05:19 32° S 20:11:06 10° ESE visible
30 Jan - 21:52:47 10° WSW 21:58:05 26° SSW 22:03:39 10° SE visible
30 Jan - 23:47:47 10° SW 23:50:44 13° SSW 23:53:46 10° S night (unlit)
31 Jan - 17:07:44 10° SSW 17:11:54 19° SSE 17:16:07 10° ESE daylight
31 Jan - 18:59:06 10° SW 19:04:28 30° S 19:10:00 10° ESE visible
31 Jan - 20:51:49 10° WSW 20:57:11 29° S 21:02:51 10° SE visible
31 Jan - 22:45:47 10° WSW 22:49:52 17° SSW 22:54:07 10° SSE night (unlit)
01 Feb - 16:08:02 10° S 16:11:10 14° SSE 16:14:17 10° SE daylight
01 Feb - 17:58:30 10° SW 18:03:39 27° S 18:08:52 10° ESE visible
01 Feb - 19:50:55 10° WSW 19:56:20 31° S 20:01:58 10° SE visible
01 Feb - 21:44:21 10° WSW 21:49:01 21° SSW 21:53:53 10° SSE visible
02 Feb - 16:58:03 10° SW 17:02:52 23° SSE 17:07:40 10° ESE daylight
02 Feb - 18:50:06 10° WSW 18:55:29 31° S 19:01:01 10° ESE visible
02 Feb - 20:43:10 10° WSW 20:48:11 25° SSW 20:53:23 10° SE visible
02 Feb - 22:38:33 10° SW 22:40:45 12° SSW 22:42:58 10° S night (unlit)
03 Feb - 15:57:48 10° SSW 16:02:05 19° SSE 16:06:20 10° ESE daylight
03 Feb - 17:49:20 10° SW 17:54:40 30° S 18:00:02 10° ESE daylight
03 Feb - 19:42:09 10° WSW 19:47:20 28° S 19:52:42 10° SE visible
03 Feb - 21:36:17 10° WSW 21:39:57 16° SSW 21:43:41 10° SSE visible
04 Feb - 14:57:55 10° S 15:01:19 15° SSE 15:04:40 10° SE daylight
04 Feb - 16:48:39 10° SW 16:53:51 27° S 16:59:00 10° ESE daylight
04 Feb - 18:41:11 10° WSW 18:46:31 30° S 18:51:55 10° SE visible
04 Feb - 20:34:45 10° WSW 20:39:08 20° SSW 20:43:38 10° SSE visible
05 Feb - 13:59:07 10° SSE 14:00:33 11° SSE 14:01:57 10° SE daylight
05 Feb - 15:48:04 10° SW 15:53:03 24° SSE 15:57:55 10° ESE daylight
05 Feb - 17:40:17 10° WSW 17:45:42 31° S 17:51:05 10° ESE daylight
05 Feb - 19:33:30 10° WSW 19:38:20 24° SSW 19:43:16 10° SE visible
05 Feb - 21:29:34 10° SW 21:30:49 11° SSW 21:32:05 10° SSW visible
06 Feb - 14:47:40 10° SSW 14:52:15 20° SSE 14:56:41 10° ESE daylight
06 Feb - 16:39:25 10° SW 16:44:52 30° S 16:50:13 10° ESE daylight
06 Feb - 18:32:23 10° WSW 18:37:33 27° S 18:42:43 10° SE visible
06 Feb - 20:26:45 10° SW 20:30:03 15° SSW 20:33:24 10° S visible
07 Feb - 13:47:35 10° SSW 13:51:26 16° SSE 13:55:09 10° ESE daylight
07 Feb - 15:38:37 10° SW 15:44:02 28° S 15:49:17 10° ESE daylight
07 Feb - 17:31:20 10° WSW 17:36:44 30° S 17:42:03 10° SE daylight
07 Feb - 19:25:04 10° WSW 19:29:18 19° SSW 19:33:34 10° SSE visible
08 Feb - 12:48:13 10° S 12:50:36 12° SSE 12:52:56 10° SE daylight
08 Feb - 14:37:55 10° SW 14:43:12 25° SSE 14:48:16 10° ESE daylight
08 Feb - 16:30:19 10° WSW 16:35:54 31° S 16:41:19 10° ESE daylight
08 Feb - 18:23:42 10° WSW 18:28:32 23° SSW 18:33:20 10° SE visible
